{"data":{"norad_id":40553,"intl_designator":"2015-020B","name":"GONETS-M 12","alt_names":[],"object_type":"PAYLOAD","status":"ACTIVE","operator":null,"country":"CIS","launch_date":"2015-03-31","launch_site_code":"PLMSC","launch_vehicle":null,"mission":null,"orbit_class":"UNKNOWN","rcs_meters":1.5906,"size_class":null,"mass_kg":null,"dimensions":null,"purposes":[],"wikipedia_slug":null,"has_3d_model":false,"image_url":null,"decayed_at":null,"tle_current":{"epoch":"2026-05-25T04:49:51.629664Z","epoch_age_seconds":51034,"freshness":"FRESH","line1":"1 40553U 15020B   26145.20129201 -.00000063  00000+0 -52767-3 0  9990","line2":"2 40553  82.4912  46.4305 0016230  39.2977 320.9278 12.42890239505872","mean_motion":12.42890239,"eccentricity":0.001623,"inclination_deg":82.4912,"raan_deg":46.4305,"arg_perigee_deg":39.2977,"mean_anomaly_deg":320.9278,"bstar":-0.00052767,"rev_number":50587,"period_min":115.85898374732,"perigee_km":1481.5977648744,"apogee_km":1507.1519383447,"semimajor_km":7872.5118516096,"source":"CELESTRAK","updated_at":"2026-05-25T13:37:55.525560Z"}}}